Time,TemperatureF,DewpointF,PressureIn,WindDirection,WindDirectionDegrees,WindSpeedMPH,WindSpeedGustMPH,Humidity,HourlyPrecipIn,Conditions,Clouds,dailyrainin,SoftwareType,DateUTC
2013-01-27 00:01:00,69.2,64.2,29.93,South,188,5.0,7.0,84,0.00,,,0.00,Wunderground v.1.15,2013-01-27 10:01:00,
2013-01-27 00:06:00,69.2,64.2,29.94,SSW,201,6.0,16.0,84,0.00,,,0.00,Wunderground v.1.15,2013-01-27 10:06:00,
2013-01-27 00:11:00,69.2,64.2,29.94,SSW,211,6.0,6.0,84,0.00,,,0.00,Wunderground v.1.15,2013-01-27 10:11:00,
2013-01-27 00:17:00,69.1,64.1,29.94,SSW,205,4.0,21.0,84,0.00,,,0.00,Wunderground v.1.15,2013-01-27 10:17:00,
2013-01-27 00:23:00,69.0,63.6,29.93,SSW,198,2.0,21.0,83,0.00,,,0.00,Wunderground v.1.15,2013-01-27 10:23:00,
2013-01-27 00:28:00,68.8,63.4,29.93,SW,219,1.0,21.0,83,0.00,,,0.00,Wunderground v.1.15,2013-01-27 10:28:00,
2013-01-27 00:33:00,68.6,63.2,29.93,SW,219,2.0,21.0,83,0.00,,,0.00,Wunderground v.1.15,2013-01-27 10:33:00,
2013-01-27 00:38:00,68.5,63.1,29.93,South,177,3.0,21.0,83,0.00,,,0.00,Wunderground v.1.15,2013-01-27 10:38:00,
2013-01-27 00:44:00,68.5,63.1,29.93,SSE,167,3.0,9.0,83,0.00,,,0.00,Wunderground v.1.15,2013-01-27 10:44:00,
2013-01-27 00:50:00,68.5,63.5,29.92,SW,228,2.0,11.0,84,0.00,,,0.00,Wunderground v.1.15,2013-01-27 10:50:00,
2013-01-27 00:55:00,68.5,63.1,29.92,SSW,208,3.0,11.0,83,0.00,,,0.00,Wunderground v.1.15,2013-01-27 10:55:00,
2013-01-27 01:01:00,68.4,62.7,29.92,WSW,245,3.0,11.0,82,0.00,,,0.00,Wunderground v.1.15,2013-01-27 11:01:00,
2013-01-27 01:07:00,68.3,62.6,29.92,SSW,194,3.0,11.0,82,0.00,,,0.00,Wunderground v.1.15,2013-01-27 11:07:00,
2013-01-27 01:13:00,68.3,62.9,29.92,SSW,212,4.0,10.0,83,0.00,,,0.00,Wunderground v.1.15,2013-01-27 11:13:00,
2013-01-27 01:18:00,68.3,62.9,29.92,WSW,242,4.0,13.0,83,0.00,,,0.00,Wunderground v.1.15,2013-01-27 11:18:00,
2013-01-27 01:24:00,68.4,63.0,29.92,SSW,202,4.0,13.0,83,0.00,,,0.00,Wunderground v.1.15,2013-01-27 11:24:00,
2013-01-27 01:30:00,68.5,63.1,29.92,SW,230,4.0,4.0,83,0.00,,,0.00,Wunderground v.1.15,2013-01-27 11:30:00,
2013-01-27 01:36:00,68.7,63.3,29.91,SSW,203,3.0,13.0,83,0.00,,,0.00,Wunderground v.1.15,2013-01-27 11:36:00,
2013-01-27 01:42:00,68.8,63.4,29.92,SSW,211,3.0,12.0,83,0.00,,,0.00,Wunderground v.1.15,2013-01-27 11:42:00,
2013-01-27 01:48:00,69.0,64.0,29.91,SW,219,4.0,12.0,84,0.00,,,0.00,Wunderground v.1.15,2013-01-27 11:48:00,
2013-01-27 01:53:00,69.1,64.4,29.91,SW,219,6.0,16.0,85,0.00,,,0.00,Wunderground v.1.15,2013-01-27 11:53:00,
2013-01-27 01:59:00,69.2,64.5,29.91,SW,217,7.0,16.0,85,0.00,,,0.00,Wunderground v.1.15,2013-01-27 11:59:00,
2013-01-27 02:04:00,69.3,64.6,29.90,SSW,198,7.0,18.0,85,0.00,,,0.00,Wunderground v.1.15,2013-01-27 12:04:00,
2013-01-27 02:09:00,69.4,65.0,29.91,South,190,6.0,18.0,86,0.00,,,0.00,Wunderground v.1.15,2013-01-27 12:09:00,
2013-01-27 02:15:00,69.3,64.9,29.91,SW,218,6.0,18.0,86,0.00,,,0.00,Wunderground v.1.15,2013-01-27 12:15:00,
2013-01-27 02:20:00,69.4,65.0,29.91,SSW,206,6.0,6.0,86,0.00,,,0.00,Wunderground v.1.15,2013-01-27 12:20:00,
2013-01-27 02:26:00,69.5,65.1,29.91,SSW,207,6.0,18.0,86,0.00,,,0.00,Wunderground v.1.15,2013-01-27 12:26:00,
2013-01-27 02:32:00,69.5,65.1,29.91,SSW,200,6.0,18.0,86,0.00,,,0.00,Wunderground v.1.15,2013-01-27 12:32:00,
2013-01-27 02:38:00,69.5,65.1,29.90,South,190,6.0,18.0,86,0.00,,,0.00,Wunderground v.1.15,2013-01-27 12:38:00,
2013-01-27 02:43:00,69.5,64.8,29.91,SSW,210,5.0,18.0,85,0.00,,,0.00,Wunderground v.1.15,2013-01-27 12:43:00,
2013-01-27 02:49:00,69.5,64.8,29.91,SSW,194,5.0,18.0,85,0.00,,,0.00,Wunderground v.1.15,2013-01-27 12:49:00,
2013-01-27 02:54:00,69.5,64.8,29.91,South,169,5.0,14.0,85,0.00,,,0.00,Wunderground v.1.15,2013-01-27 12:54:00,
2013-01-27 03:00:00,69.5,64.8,29.90,SSW,200,5.0,14.0,85,0.00,,,0.00,Wunderground v.1.15,2013-01-27 13:00:00,
2013-01-27 03:05:00,69.5,65.1,29.90,SSW,199,5.0,14.0,86,0.00,,,0.00,Wunderground v.1.15,2013-01-27 13:05:00,
2013-01-27 03:10:00,69.5,65.1,29.90,SW,217,5.0,13.0,86,0.00,,,0.00,Wunderground v.1.15,2013-01-27 13:10:00,
2013-01-27 03:16:00,69.4,65.0,29.90,South,171,3.0,13.0,86,0.00,,,0.00,Wunderground v.1.15,2013-01-27 13:16:00,
2013-01-27 03:22:00,69.2,64.8,29.90,SSW,204,2.0,10.0,86,0.00,,,0.00,Wunderground v.1.15,2013-01-27 13:22:00,
2013-01-27 03:27:00,69.1,64.4,29.90,SSW,204,2.0,10.0,85,0.00,,,0.00,Wunderground v.1.15,2013-01-27 13:27:00,
2013-01-27 03:33:00,69.0,64.6,29.90,South,177,2.0,10.0,86,0.00,,,0.00,Wunderground v.1.15,2013-01-27 13:33:00,
2013-01-27 03:39:00,69.0,64.6,29.90,South,190,4.0,12.0,86,0.00,,,0.00,Wunderground v.1.15,2013-01-27 13:39:00,
2013-01-27 03:44:00,69.2,64.8,29.90,South,180,5.0,11.0,86,0.00,,,0.00,Wunderground v.1.15,2013-01-27 13:44:00,
2013-01-27 03:50:00,69.5,65.1,29.90,SSW,201,6.0,14.0,86,0.00,,,0.00,Wunderground v.1.15,2013-01-27 13:50:00,
2013-01-27 03:55:00,69.6,65.2,29.90,SSW,194,7.0,14.0,86,0.00,,,0.00,Wunderground v.1.15,2013-01-27 13:55:00,
2013-01-27 04:01:00,69.7,65.3,29.90,South,186,6.0,8.0,86,0.00,,,0.00,Wunderground v.1.15,2013-01-27 14:01:00,
2013-01-27 04:07:00,69.8,65.4,29.89,South,187,5.0,15.0,86,0.00,,,0.00,Wunderground v.1.15,2013-01-27 14:07:00,
2013-01-27 04:12:00,69.7,65.7,29.89,SSW,202,4.0,15.0,87,0.00,,,0.00,Wunderground v.1.15,2013-01-27 14:12:00,
2013-01-27 04:17:00,69.6,65.6,29.89,South,188,4.0,15.0,87,0.00,,,0.00,Wunderground v.1.15,2013-01-27 14:17:00,
2013-01-27 10:18:00,69.5,66.1,29.95,South,187,2.0,10.0,89,0.00,,,0.09,Wunderground v.1.15,2013-01-27 20:18:00,
2013-01-27 10:27:00,70.0,66.9,29.95,SSW,211,3.0,6.0,90,0.00,,,0.09,Wunderground v.1.15,2013-01-27 20:27:00,
2013-01-27 10:32:00,70.2,66.8,29.94,WSW,248,2.0,8.0,89,0.00,,,0.09,Wunderground v.1.15,2013-01-27 20:32:00,
2013-01-27 10:38:00,70.4,67.0,29.94,South,187,2.0,8.0,89,0.00,,,0.09,Wunderground v.1.15,2013-01-27 20:38:00,
2013-01-27 10:43:00,70.4,66.3,29.94,South,189,3.0,8.0,87,0.00,,,0.09,Wunderground v.1.15,2013-01-27 20:43:00,
2013-01-27 10:49:00,70.9,67.2,29.94,SSW,193,2.0,10.0,88,0.00,,,0.09,Wunderground v.1.15,2013-01-27 20:49:00,
2013-01-27 10:55:00,71.8,68.1,29.94,SW,222,2.0,10.0,88,0.00,,,0.09,Wunderground v.1.15,2013-01-27 20:55:00,
2013-01-27 11:00:00,72.4,68.6,29.93,SW,225,2.0,10.0,88,0.00,,,0.09,Wunderground v.1.15,2013-01-27 21:00:00,
2013-01-27 11:05:00,72.6,68.2,29.93,SSW,206,2.0,10.0,86,0.00,,,0.09,Wunderground v.1.15,2013-01-27 21:05:00,
2013-01-27 11:11:00,72.9,68.1,29.93,SSW,206,1.0,7.0,85,0.00,,,0.09,Wunderground v.1.15,2013-01-27 21:11:00,
2013-01-27 11:16:00,73.1,68.7,29.94,SSW,207,0.0,7.0,86,0.00,,,0.09,Wunderground v.1.15,2013-01-27 21:16:00,
2013-01-27 11:22:00,72.8,67.7,29.94,NNW,330,1.0,6.0,84,0.00,,,0.09,Wunderground v.1.15,2013-01-27 21:22:00,
2013-01-27 11:28:00,72.1,66.6,29.94,North,5,2.0,6.0,83,0.00,,,0.09,Wunderground v.1.15,2013-01-27 21:28:00,
2013-01-27 11:33:00,71.4,67.0,29.94,North,5,1.0,7.0,86,0.00,,,0.09,Wunderground v.1.15,2013-01-27 21:33:00,
2013-01-27 11:39:00,70.8,67.4,29.95,ENE,63,1.0,7.0,89,0.00,,,0.09,Wunderground v.1.15,2013-01-27 21:39:00,
2013-01-27 11:44:00,70.4,67.3,29.95,ENE,65,1.0,7.0,90,0.00,,,0.10,Wunderground v.1.15,2013-01-27 21:44:00,
2013-01-27 11:50:00,70.0,67.3,29.94,ENE,70,1.0,6.0,91,0.00,,,0.10,Wunderground v.1.15,2013-01-27 21:50:00,
2013-01-27 11:56:00,69.7,67.3,29.95,ENE,72,2.0,6.0,92,0.05,,,0.11,Wunderground v.1.15,2013-01-27 21:56:00,
2013-01-27 12:01:00,69.5,67.4,29.94,ENE,72,1.0,6.0,93,0.05,,,0.11,Wunderground v.1.15,2013-01-27 22:01:00,
2013-01-27 12:07:00,69.4,67.6,29.94,East,79,1.0,6.0,94,0.06,,,0.12,Wunderground v.1.15,2013-01-27 22:07:00,
2013-01-27 12:13:00,69.6,68.1,29.94,NNW,344,1.0,7.0,95,0.06,,,0.12,Wunderground v.1.15,2013-01-27 22:13:00,
2013-01-27 12:19:00,68.9,66.8,29.93,NW,326,3.0,9.0,93,0.04,,,0.12,Wunderground v.1.15,2013-01-27 22:19:00,
2013-01-27 12:24:00,68.6,66.8,29.93,NNW,331,5.0,9.0,94,0.00,,,0.12,Wunderground v.1.15,2013-01-27 22:24:00,
2013-01-27 12:30:00,67.9,66.1,29.93,West,281,7.0,9.0,94,0.00,,,0.12,Wunderground v.1.15,2013-01-27 22:30:00,
2013-01-27 12:36:00,67.5,66.0,29.93,NNW,331,8.0,22.0,95,0.00,,,0.12,Wunderground v.1.15,2013-01-27 22:36:00,
2013-01-27 12:41:00,67.1,65.6,29.93,NNW,333,8.0,10.0,95,0.00,,,0.12,Wunderground v.1.15,2013-01-27 22:41:00,
2013-01-27 12:47:00,66.6,65.1,29.92,WNW,303,7.0,22.0,95,0.00,,,0.13,Wunderground v.1.15,2013-01-27 22:47:00,
2013-01-27 12:53:00,66.5,65.3,29.92,NNW,327,6.0,18.0,96,0.00,,,0.13,Wunderground v.1.15,2013-01-27 22:53:00,
2013-01-27 12:58:00,66.2,65.0,29.93,WNW,298,7.0,18.0,96,0.00,,,0.13,Wunderground v.1.15,2013-01-27 22:58:00,
2013-01-27 13:03:00,65.7,64.5,29.93,NW,313,7.0,18.0,96,0.00,,,0.13,Wunderground v.1.15,2013-01-27 23:03:00,
2013-01-27 13:09:00,65.3,64.1,29.94,WSW,254,7.0,18.0,96,0.00,,,0.13,Wunderground v.1.15,2013-01-27 23:09:00,
2013-01-27 13:14:00,65.2,64.0,29.94,WNW,296,5.0,15.0,96,0.00,,,0.14,Wunderground v.1.15,2013-01-27 23:14:00,
2013-01-27 13:20:00,65.1,63.9,29.93,NW,313,4.0,16.0,96,0.21,,,0.16,Wunderground v.1.15,2013-01-27 23:20:00,
2013-01-27 13:26:00,64.8,63.6,29.93,NNW,340,5.0,16.0,96,0.13,,,0.17,Wunderground v.1.15,2013-01-27 23:26:00,
2013-01-27 13:31:00,64.7,63.8,29.93,North,5,6.0,8.0,97,0.14,,,0.18,Wunderground v.1.15,2013-01-27 23:31:00,
2013-01-27 13:37:00,64.6,63.7,29.93,WNW,298,6.0,13.0,97,0.08,,,0.19,Wunderground v.1.15,2013-01-27 23:37:00,
2013-01-27 13:43:00,64.4,63.5,29.93,NW,310,6.0,13.0,97,0.09,,,0.20,Wunderground v.1.15,2013-01-27 23:43:00,
2013-01-27 13:48:00,64.2,63.3,29.92,WNW,294,7.0,13.0,97,0.09,,,0.20,Wunderground v.1.15,2013-01-27 23:48:00,
2013-01-27 13:54:00,64.1,63.2,29.92,NW,323,6.0,13.0,97,0.07,,,0.21,Wunderground v.1.15,2013-01-27 23:54:00,
2013-01-27 13:59:00,63.8,62.9,29.93,WNW,289,8.0,13.0,97,0.09,,,0.22,Wunderground v.1.15,2013-01-27 23:59:00,
2013-01-27 14:04:00,63.5,62.6,29.93,WNW,294,8.0,18.0,97,0.09,,,0.22,Wunderground v.1.15,2013-01-28 00:04:00,
2013-01-27 14:10:00,63.4,62.5,29.93,West,269,6.0,18.0,97,0.08,,,0.23,Wunderground v.1.15,2013-01-28 00:10:00,
2013-01-27 14:15:00,63.3,62.4,29.93,NNW,327,5.0,18.0,97,0.06,,,0.23,Wunderground v.1.15,2013-01-28 00:15:00,
2013-01-27 14:21:00,63.2,62.3,29.93,NNW,340,6.0,12.0,97,0.06,,,0.24,Wunderground v.1.15,2013-01-28 00:21:00,
2013-01-27 14:27:00,63.1,62.2,29.93,WNW,301,6.0,12.0,97,0.06,,,0.25,Wunderground v.1.15,2013-01-28 00:27:00,
2013-01-27 14:33:00,63.1,62.2,29.94,NW,317,4.0,12.0,97,0.06,,,0.25,Wunderground v.1.15,2013-01-28 00:33:00,
2013-01-27 14:39:00,63.2,62.3,29.94,NW,320,2.0,12.0,97,0.07,,,0.26,Wunderground v.1.15,2013-01-28 00:39:00,
2013-01-27 14:44:00,63.2,62.3,29.94,NW,306,2.0,12.0,97,0.08,,,0.27,Wunderground v.1.15,2013-01-28 00:44:00,
2013-01-27 14:49:00,63.2,62.3,29.94,WNW,282,4.0,12.0,97,0.20,,,0.29,Wunderground v.1.15,2013-01-28 00:49:00,
2013-01-27 14:54:00,62.8,61.9,29.94,West,274,6.0,7.0,97,0.13,,,0.30,Wunderground v.1.15,2013-01-28 00:54:00,
2013-01-27 15:01:00,62.8,62.2,29.94,WNW,300,5.0,15.0,98,0.08,,,0.30,Wunderground v.1.15,2013-01-28 01:01:00,
2013-01-27 15:07:00,62.7,61.8,29.94,West,270,6.0,15.0,97,0.04,,,0.30,Wunderground v.1.15,2013-01-28 01:07:00,
2013-01-27 15:13:00,62.6,61.7,29.94,WSW,254,7.0,15.0,97,0.04,,,0.31,Wunderground v.1.15,2013-01-28 01:13:00,
2013-01-27 15:19:00,62.6,62.6,29.94,West,272,6.0,15.0,100,0.04,,,0.31,Wunderground v.1.15,2013-01-28 01:19:00,
2013-01-27 15:24:00,62.6,62.6,29.94,NW,318,4.0,15.0,100,0.04,,,0.31,Wunderground v.1.15,2013-01-28 01:24:00,
2013-01-27 15:30:00,62.6,62.6,29.94,West,265,3.0,15.0,100,0.00,,,0.31,Wunderground v.1.15,2013-01-28 01:30:00,
2013-01-27 15:36:00,62.5,61.6,29.94,West,272,3.0,15.0,97,0.00,,,0.31,Wunderground v.1.15,2013-01-28 01:36:00,
2013-01-27 15:41:00,62.5,61.6,29.94,West,269,3.0,11.0,97,0.00,,,0.31,Wunderground v.1.15,2013-01-28 01:41:00,
2013-01-27 15:47:00,62.8,62.2,29.94,West,268,2.0,11.0,98,0.00,,,0.32,Wunderground v.1.15,2013-01-28 01:47:00,
2013-01-27 15:53:00,63.0,62.4,29.93,West,268,1.0,8.0,98,0.00,,,0.32,Wunderground v.1.15,2013-01-28 01:53:00,
2013-01-27 15:58:00,63.1,62.2,29.94,West,268,1.0,8.0,97,0.00,,,0.32,Wunderground v.1.15,2013-01-28 01:58:00,
2013-01-27 16:03:00,63.1,62.2,29.94,SW,228,2.0,8.0,97,0.00,,,0.32,Wunderground v.1.15,2013-01-28 02:03:00,
2013-01-27 16:09:00,62.7,61.8,29.94,WSW,240,2.0,8.0,97,0.00,,,0.32,Wunderground v.1.15,2013-01-28 02:09:00,
2013-01-27 16:14:00,62.5,61.3,29.94,WSW,240,2.0,5.0,96,0.00,,,0.32,Wunderground v.1.15,2013-01-28 02:14:00,
2013-01-27 16:20:00,62.4,61.2,29.94,WSW,240,3.0,6.0,96,0.00,,,0.32,Wunderground v.1.15,2013-01-28 02:20:00,
2013-01-27 16:25:00,62.4,61.2,29.93,WSW,241,2.0,6.0,96,0.00,,,0.32,Wunderground v.1.15,2013-01-28 02:25:00,
2013-01-27 16:31:00,62.7,61.2,29.93,WSW,241,1.0,6.0,95,0.00,,,0.32,Wunderground v.1.15,2013-01-28 02:31:00,
2013-01-27 16:36:00,62.8,61.0,29.93,WSW,248,2.0,6.0,94,0.00,,,0.32,Wunderground v.1.15,2013-01-28 02:36:00,
2013-01-27 16:41:00,63.1,61.0,29.93,WSW,248,2.0,5.0,93,0.00,,,0.32,Wunderground v.1.15,2013-01-28 02:41:00,
2013-01-27 16:47:00,63.2,60.5,29.93,WSW,248,2.0,6.0,91,0.00,,,0.32,Wunderground v.1.15,2013-01-28 02:47:00,
2013-01-27 16:53:00,63.2,59.9,29.93,WSW,244,2.0,6.0,89,0.00,,,0.32,Wunderground v.1.15,2013-01-28 02:53:00,
2013-01-27 16:59:00,63.3,59.7,29.94,WSW,255,1.0,6.0,88,0.00,,,0.32,Wunderground v.1.15,2013-01-28 02:59:00,
2013-01-27 17:04:00,63.4,59.8,29.94,WSW,255,1.0,6.0,88,0.00,,,0.32,Wunderground v.1.15,2013-01-28 03:04:00,
2013-01-27 17:09:00,63.4,59.8,29.94,WSW,255,1.0,6.0,88,0.00,,,0.32,Wunderground v.1.15,2013-01-28 03:09:00,
2013-01-27 17:15:00,63.4,59.5,29.94,WSW,255,0.0,6.0,87,0.00,,,0.32,Wunderground v.1.15,2013-01-28 03:15:00,
2013-01-27 17:20:00,63.5,59.9,29.94,WSW,255,0.0,2.0,88,0.00,,,0.33,Wunderground v.1.15,2013-01-28 03:20:00,
2013-01-27 17:26:00,63.6,60.3,29.94,WSW,255,0.0,2.0,89,0.00,,,0.33,Wunderground v.1.15,2013-01-28 03:26:00,
2013-01-27 17:31:00,63.6,60.3,29.94,WSW,255,0.0,2.0,89,0.00,,,0.33,Wunderground v.1.15,2013-01-28 03:31:00,
2013-01-27 17:37:00,63.6,60.3,29.95,WSW,255,0.0,2.0,89,0.00,,,0.33,Wunderground v.1.15,2013-01-28 03:37:00,
2013-01-27 17:43:00,63.5,60.5,29.95,WSW,255,0.0,1.0,90,0.00,,,0.33,Wunderground v.1.15,2013-01-28 03:43:00,
2013-01-27 17:49:00,63.6,60.9,29.95,WSW,255,0.0,1.0,91,0.00,,,0.34,Wunderground v.1.15,2013-01-28 03:49:00,
2013-01-27 17:54:00,63.5,60.8,29.95,WSW,255,0.0,0.0,91,0.00,,,0.34,Wunderground v.1.15,2013-01-28 03:54:00,
2013-01-27 18:00:00,63.4,60.7,29.96,WSW,255,0.0,1.0,91,0.00,,,0.34,Wunderground v.1.15,2013-01-28 04:00:00,
2013-01-27 18:05:00,63.1,60.1,29.96,WSW,255,0.0,3.0,90,0.00,,,0.34,Wunderground v.1.15,2013-01-28 04:05:00,
2013-01-27 18:10:00,62.9,59.9,29.96,WSW,255,0.0,3.0,90,0.00,,,0.34,Wunderground v.1.15,2013-01-28 04:10:00,
2013-01-27 18:16:00,62.7,59.4,29.96,WSW,255,1.0,4.0,89,0.00,,,0.34,Wunderground v.1.15,2013-01-28 04:16:00,
2013-01-27 18:21:00,62.7,59.1,29.96,WSW,255,1.0,4.0,88,0.00,,,0.34,Wunderground v.1.15,2013-01-28 04:21:00,
2013-01-27 18:27:00,62.8,59.5,29.97,WSW,255,1.0,4.0,89,0.00,,,0.34,Wunderground v.1.15,2013-01-28 04:27:00,
2013-01-27 18:33:00,62.7,59.4,29.97,WSW,255,0.0,4.0,89,0.00,,,0.34,Wunderground v.1.15,2013-01-28 04:33:00,
2013-01-27 18:38:00,62.7,59.4,29.98,West,280,2.0,5.0,89,0.00,,,0.35,Wunderground v.1.15,2013-01-28 04:38:00,
2013-01-27 18:44:00,62.5,59.5,29.97,West,280,2.0,4.0,90,0.07,,,0.36,Wunderground v.1.15,2013-01-28 04:44:00,
2013-01-27 18:50:00,62.3,59.3,29.98,West,280,1.0,7.0,90,0.07,,,0.36,Wunderground v.1.15,2013-01-28 04:50:00,
2013-01-27 18:56:00,62.0,59.0,29.98,West,281,1.0,7.0,90,0.05,,,0.36,Wunderground v.1.15,2013-01-28 04:56:00,
2013-01-27 19:01:00,61.8,58.8,29.99,West,273,2.0,7.0,90,0.00,,,0.36,Wunderground v.1.15,2013-01-28 05:01:00,
2013-01-27 19:02:00,61.8,58.8,29.99,West,277,2.0,7.0,90,0.00,,,0.37,Wunderground v.1.15,2013-01-28 05:02:00,
2013-01-27 19:03:00,61.9,59.2,29.99,West,278,2.0,7.0,91,0.00,,,0.37,Wunderground v.1.15,2013-01-28 05:03:00,
2013-01-27 19:06:00,61.8,59.5,29.99,West,278,2.0,7.0,92,0.00,,,0.37,Wunderground v.1.15,2013-01-28 05:06:00,
2013-01-27 19:12:00,61.7,59.4,29.99,West,278,1.0,6.0,92,0.06,,,0.38,Wunderground v.1.15,2013-01-28 05:12:00,
2013-01-27 19:18:00,61.5,59.2,29.98,SSW,193,1.0,6.0,92,0.10,,,0.39,Wunderground v.1.15,2013-01-28 05:18:00,
2013-01-27 19:23:00,61.2,58.9,29.97,South,169,3.0,6.0,92,0.17,,,0.40,Wunderground v.1.15,2013-01-28 05:23:00,
2013-01-27 19:29:00,60.8,58.5,29.98,SSW,200,3.0,6.0,92,0.07,,,0.41,Wunderground v.1.15,2013-01-28 05:29:00,
2013-01-27 19:35:00,60.5,58.5,29.97,South,171,4.0,8.0,93,0.07,,,0.41,Wunderground v.1.15,2013-01-28 05:35:00,
2013-01-27 19:40:00,60.4,58.4,29.97,South,188,3.0,3.0,93,0.05,,,0.41,Wunderground v.1.15,2013-01-28 05:40:00,
2013-01-27 19:46:00,60.3,58.6,29.97,South,188,1.0,9.0,94,0.05,,,0.42,Wunderground v.1.15,2013-01-28 05:46:00,
2013-01-27 19:52:00,60.3,58.6,29.96,South,189,1.0,9.0,94,0.09,,,0.43,Wunderground v.1.15,2013-01-28 05:52:00,
2013-01-27 19:57:00,60.3,58.6,29.97,South,189,0.0,9.0,94,0.06,,,0.43,Wunderground v.1.15,2013-01-28 05:57:00,
2013-01-27 20:03:00,60.3,58.9,29.96,South,189,0.0,4.0,95,0.05,,,0.44,Wunderground v.1.15,2013-01-28 06:03:00,
2013-01-27 20:09:00,60.3,58.9,29.97,South,189,0.0,4.0,95,0.05,,,0.44,Wunderground v.1.15,2013-01-28 06:09:00,
2013-01-27 20:15:00,60.3,58.9,29.96,SSW,193,1.0,5.0,95,0.04,,,0.44,Wunderground v.1.15,2013-01-28 06:15:00,
2013-01-27 20:21:00,60.4,59.0,29.96,SSE,153,2.0,6.0,95,0.00,,,0.44,Wunderground v.1.15,2013-01-28 06:21:00,
2013-01-27 20:26:00,60.5,59.1,29.96,SSE,153,1.0,6.0,95,0.00,,,0.44,Wunderground v.1.15,2013-01-28 06:26:00,
2013-01-27 20:32:00,60.6,59.2,29.96,SSE,153,0.0,7.0,95,0.00,,,0.45,Wunderground v.1.15,2013-01-28 06:32:00,
2013-01-27 20:38:00,60.6,59.5,29.97,SSE,153,0.0,7.0,96,0.00,,,0.45,Wunderground v.1.15,2013-01-28 06:38:00,
2013-01-27 20:44:00,60.6,59.5,29.97,SSE,153,0.0,7.0,96,0.00,,,0.45,Wunderground v.1.15,2013-01-28 06:44:00,
2013-01-27 20:49:00,60.6,59.5,29.97,SSE,153,0.0,7.0,96,0.00,,,0.45,Wunderground v.1.15,2013-01-28 06:49:00,
2013-01-27 20:55:00,60.8,59.7,29.96,SSE,153,1.0,2.0,96,0.00,,,0.45,Wunderground v.1.15,2013-01-28 06:55:00,
2013-01-27 21:01:00,60.9,59.8,29.96,South,178,1.0,2.0,96,0.00,,,0.46,Wunderground v.1.15,2013-01-28 07:01:00,
2013-01-27 21:07:00,60.9,59.8,29.97,South,178,1.0,5.0,96,0.00,,,0.46,Wunderground v.1.15,2013-01-28 07:07:00,
2013-01-27 21:12:00,61.0,59.9,29.97,South,178,0.0,5.0,96,0.00,,,0.46,Wunderground v.1.15,2013-01-28 07:12:00,
2013-01-27 21:18:00,61.1,60.0,29.97,South,178,0.0,5.0,96,0.00,,,0.46,Wunderground v.1.15,2013-01-28 07:18:00,
2013-01-27 21:24:00,61.0,59.9,29.98,South,178,0.0,2.0,96,0.00,,,0.46,Wunderground v.1.15,2013-01-28 07:24:00,
2013-01-27 21:29:00,60.9,59.8,29.98,South,180,1.0,2.0,96,0.00,,,0.46,Wunderground v.1.15,2013-01-28 07:29:00,
2013-01-27 21:35:00,60.9,59.5,29.97,South,180,0.0,4.0,95,0.00,,,0.46,Wunderground v.1.15,2013-01-28 07:35:00,
2013-01-27 21:41:00,60.8,59.4,29.97,South,180,0.0,4.0,95,0.00,,,0.46,Wunderground v.1.15,2013-01-28 07:41:00,
2013-01-27 21:46:00,60.9,59.5,29.97,South,180,0.0,4.0,95,0.00,,,0.46,Wunderground v.1.15,2013-01-28 07:46:00,
2013-01-27 21:52:00,60.9,59.5,29.98,South,184,1.0,3.0,95,0.00,,,0.46,Wunderground v.1.15,2013-01-28 07:52:00,
2013-01-27 21:58:00,60.8,59.4,29.98,South,184,0.0,3.0,95,0.00,,,0.46,Wunderground v.1.15,2013-01-28 07:58:00,
2013-01-27 22:03:00,60.7,59.3,29.98,South,184,0.0,4.0,95,0.00,,,0.46,Wunderground v.1.15,2013-01-28 08:03:00,
2013-01-27 22:09:00,60.5,59.4,29.98,South,184,0.0,4.0,96,0.00,,,0.46,Wunderground v.1.15,2013-01-28 08:09:00,
2013-01-27 22:15:00,60.5,59.4,29.98,SE,142,1.0,4.0,96,0.00,,,0.46,Wunderground v.1.15,2013-01-28 08:15:00,
2013-01-27 22:21:00,60.5,59.4,29.98,SE,142,1.0,6.0,96,0.00,,,0.46,Wunderground v.1.15,2013-01-28 08:21:00,
2013-01-27 22:26:00,60.4,59.3,29.97,SE,140,2.0,6.0,96,0.00,,,0.46,Wunderground v.1.15,2013-01-28 08:26:00,
2013-01-27 22:31:00,60.4,59.3,29.97,SE,141,4.0,8.0,96,0.00,,,0.46,Wunderground v.1.15,2013-01-28 08:31:00,
2013-01-27 22:37:00,60.4,59.3,29.99,SE,141,3.0,8.0,96,0.00,,,0.46,Wunderground v.1.15,2013-01-28 08:37:00,
2013-01-27 22:43:00,60.4,59.3,30.00,SSE,155,2.0,8.0,96,0.00,,,0.46,Wunderground v.1.15,2013-01-28 08:43:00,
2013-01-27 22:49:00,60.5,59.4,30.00,SSE,155,2.0,8.0,96,0.00,,,0.46,Wunderground v.1.15,2013-01-28 08:49:00,
2013-01-27 22:54:00,60.4,59.3,29.99,SSE,155,0.0,6.0,96,0.00,,,0.46,Wunderground v.1.15,2013-01-28 08:54:00,
2013-01-27 23:00:00,60.4,59.3,30.00,SSE,155,1.0,6.0,96,0.00,,,0.46,Wunderground v.1.15,2013-01-28 09:00:00,
2013-01-27 23:05:00,60.5,59.4,30.00,SSE,155,1.0,6.0,96,0.00,,,0.46,Wunderground v.1.15,2013-01-28 09:05:00,
2013-01-27 23:10:00,60.7,59.8,29.98,SSE,155,2.0,2.0,97,0.00,,,0.46,Wunderground v.1.15,2013-01-28 09:10:00,
2013-01-27 23:16:00,60.9,60.0,29.99,SSW,197,4.0,7.0,97,0.00,,,0.46,Wunderground v.1.15,2013-01-28 09:16:00,
2013-01-27 23:22:00,61.0,60.1,29.99,SSW,197,2.0,7.0,97,0.00,,,0.46,Wunderground v.1.15,2013-01-28 09:22:00,
2013-01-27 23:27:00,61.0,59.9,29.99,SSW,197,1.0,7.0,96,0.00,,,0.46,Wunderground v.1.15,2013-01-28 09:27:00,
2013-01-27 23:33:00,60.9,59.8,29.99,SSE,163,2.0,7.0,96,0.00,,,0.46,Wunderground v.1.15,2013-01-28 09:33:00,
2013-01-27 23:39:00,60.7,59.6,29.99,South,186,4.0,7.0,96,0.00,,,0.46,Wunderground v.1.15,2013-01-28 09:39:00,
2013-01-27 23:45:00,60.6,59.5,29.99,South,186,3.0,5.0,96,0.00,,,0.46,Wunderground v.1.15,2013-01-28 09:45:00,
2013-01-27 23:51:00,60.6,59.5,29.99,South,186,1.0,7.0,96,0.00,,,0.46,Wunderground v.1.15,2013-01-28 09:51:00,
2013-01-27 23:57:00,60.6,59.5,29.99,South,186,0.0,7.0,96,0.00,,,0.46,Wunderground v.1.15,2013-01-28 09:57:00,